Bangor, ME

1:26 PM EDT on March 28, 2017 (GMT -0400)
Bangor International

Weather History for KBGR - January, 2012

Change the Weather History Date:

Wednesday, January 25, 2012

  Actual Average Record
Temperature  
Mean Temperature 32 °F 17 °F  
Max Temperature 37 °F 27 °F 51 °F (2010)
Min Temperature 26 °F 6 °F -19 °F (2009)
Degree Days  
Heating Degree Days 33 48  
Month to date heating degree days 1072 1198  
Since 1 July heating degree days 3482 4119  
Cooling Degree Days 0 0  
Month to date cooling degree days 0 0  
Year to date cooling degree days 0 0  
Moisture  
Dew Point 21 °F    
Average Humidity 64    
Maximum Humidity 76    
Minimum Humidity 52    
Precipitation  
Precipitation 0.00 in 0.09 in 1.71 in (2010)
Month to date precipitation 0.86 2.34  
Year to date precipitation 0.86 2.34  
Snow  
Snow 0.00 in 0.70 in 11.00 in (1950)
Month to date snowfall 4.7 15.6  
Since 1 July snowfall 29.1 32.4  
Snow Depth 0.00 in    
Sea Level Pressure  
Sea Level Pressure 30.05 in    
Wind  
Wind Speed 7 mph (WNW)    
Max Wind Speed 20 mph    
Max Gust Speed 30 mph    
Visibility 10 miles    
Events      
T = Trace of Precipitation, MM = Missing Value Source: NWS Daily Summary

Daily Weather History Graph

Daily Weather History Graph

Search for Another Location

Airport or City:

Trip Planner

Search our weather history database for the weather conditions in past years. The results will help you decide how hot, cold, wet, or windy it might be!

Date:

Astronomy

Jan. 25, 2012 Rise Set
Actual Time 7:02 AM EST 4:33 PM EST
Civil Twilight 6:30 AM EST 5:04 PM EST
Nautical Twilight 5:55 AM EST 5:40 PM EST
Astronomical Twilight 5:20 AM EST 6:15 PM EST
Moon 7:51 AM EST (1/25) 7:32 PM EST (1/25)
Length of Visible Light 10h 34m
Length of Day
9h 30m
Waxing Crescent, 6% of the Moon is Illuminated
Jan 25
Waxing Crescent
Jan 30
First Quarter
Feb 7
Full
Feb 14
Last Quarter
Feb 21
New

Hourly Weather History & Observations

Time (EST) Temp. Windchill Dew Point Humidity Pressure Visibility Wind Dir Wind Speed Gust Speed Precip Events Conditions
12:53 AM 36.0 °F 31.1 °F 28.0 °F 73% 29.93 in 10.0 mi WNW 5.8 mph - N/A   Mostly Cloudy
1:53 AM 34.0 °F 31.0 °F 26.1 °F 73% 29.95 in 10.0 mi West 3.5 mph - N/A   Partly Cloudy
2:53 AM 33.1 °F 28.7 °F 26.1 °F 75% 29.95 in 10.0 mi West 4.6 mph - N/A   Scattered Clouds
3:53 AM 33.1 °F 27.7 °F 26.1 °F 75% 29.96 in 10.0 mi West 5.8 mph - N/A   Scattered Clouds
4:53 AM 32.0 °F 27.5 °F 25.0 °F 75% 29.98 in 10.0 mi WSW 4.6 mph - N/A   Partly Cloudy
5:53 AM 33.1 °F - 26.1 °F 75% 29.99 in 10.0 mi Calm Calm - N/A   Overcast
6:53 AM 33.1 °F 30.0 °F 25.0 °F 72% 30.00 in 10.0 mi WSW 3.5 mph - N/A   Mostly Cloudy
7:53 AM 34.0 °F 28.8 °F 25.0 °F 70% 30.02 in 10.0 mi West 5.8 mph - N/A   Mostly Cloudy
8:53 AM 35.1 °F 28.6 °F 24.1 °F 64% 30.04 in 10.0 mi WNW 8.1 mph - N/A   Mostly Cloudy
9:53 AM 35.1 °F 27.4 °F 21.0 °F 57% 30.06 in 10.0 mi West 10.4 mph 19.6 mph N/A   Mostly Cloudy
10:53 AM 35.1 °F 26.4 °F 19.9 °F 54% 30.06 in 10.0 mi WNW 12.7 mph 26.5 mph N/A   Mostly Cloudy
11:53 AM 37.0 °F 28.1 °F 21.9 °F 54% 30.05 in 10.0 mi WNW 15.0 mph 23.0 mph N/A   Mostly Cloudy
12:53 PM 36.0 °F 27.5 °F 21.0 °F 55% 30.03 in 10.0 mi WNW 12.7 mph 20.7 mph N/A   Mostly Cloudy
1:53 PM 36.0 °F 28.0 °F 21.9 °F 57% 30.04 in 10.0 mi WNW 11.5 mph 18.4 mph N/A   Mostly Cloudy
2:53 PM 34.0 °F 27.2 °F 21.0 °F 59% 30.06 in 10.0 mi WNW 8.1 mph - N/A   Mostly Cloudy
3:53 PM 34.0 °F 26.6 °F 19.9 °F 56% 30.07 in 10.0 mi WNW 9.2 mph - N/A   Mostly Cloudy
4:53 PM 30.2 °F 21.9 °F 19.4 °F 64% 30.07 in 10.0 mi NW 9.2 mph - N/A   Scattered Clouds
5:53 PM 28.9 °F 18.2 °F 17.1 °F 61% 30.10 in 10.0 mi NW 13.8 mph 20.7 mph N/A   Scattered Clouds
6:53 PM 28.0 °F 18.1 °F 15.1 °F 58% 30.12 in 10.0 mi NW 11.5 mph - N/A   Partly Cloudy
7:53 PM 27.0 °F 16.7 °F 15.1 °F 61% 30.13 in 10.0 mi NW 11.5 mph - N/A   Partly Cloudy
8:53 PM 26.6 °F 16.8 °F 15.8 °F 64% 30.13 in 10.0 mi NW 10.4 mph 21.9 mph N/A   Partly Cloudy
9:53 PM 26.1 °F 16.8 °F 15.1 °F 63% 30.14 in 10.0 mi NW 9.2 mph - N/A   Scattered Clouds
10:53 PM 26.1 °F 17.6 °F 15.1 °F 63% 30.13 in 10.0 mi WNW 8.1 mph 18.4 mph N/A   Mostly Cloudy
11:53 PM 26.1 °F 17.6 °F 15.1 °F 63% 30.13 in 10.0 mi NW 8.1 mph - N/A   Mostly Cloudy